We konden geen weer-waarchuwingen ophalen. Ga rechtstreeks naar de Meteoalarm site : www.meteoalarm.eu en controleer daar .



Onweer radar Meer informatie blitzortung!


Regen radar Meer informatie rain snow radar


Bezoek onze andere website:

Template documentation
and downloads

And another site



15 daagse weersverwachting Pori (FI)

  • Overzicht
  • Per uur
  • 15 dagen
  • Extra
  • Vergelijk
  • Kaarten
  • Dagkaart
  • Meer »
  • Info
  • Statistieken
  • Directe link
    Temp 6h Neerslag Wind  
 05:48     21:27    Daglengte: 15:39 Vandaag
15:00
22°
1.3 mm
4
warningclass
21:00
20°
4.8 mm
3
 05:51     21:24    Daglengte: 15:33 Morgen
03:00
19°
0.6 mm
2
09:00
19°
 
1
15:00
25°
 
1
21:00
22°
 
1
 05:53     21:21    Daglengte: 15:28 Vrijdag 19 Aug
03:00
19°
 
2
09:00
21°
 
3
15:00
27°
 
5
21:00
24°
 
3
 05:56     21:18    Daglengte: 15:22 Zaterdag 20 Aug
03:00
21°
 
4
09:00
22°
 
5
Locatie info
Region: Satakunta
Latitude: 61.4860°N
Longitude: 21.7954°E
19 masl
Postcode: 28100
Temp/Neerslag /Baro Onweer/Dauwpunt
    Temp Baro 1h Neerslag Dauwpunt Wind UV Bewolking  
 05:48     21:27    Daglengte: 15:39 Vandaag
14:00
23°
1012.1 hPa
45%
21.3°
4
Windvlaag: 9.2 m/s
86%
15:00
22°
1012.3 hPa 1.3 mm
82%
21.0°
4
Windvlaag: 7.8 m/s
58% warningclass
16:00
22°
1012.1 hPa
82%
20.8°
4
Windvlaag: 7.8 m/s
75% warningclass
17:00
22°
1012.0 hPa 1.0 mm
82%
21.1°
3
Windvlaag: 8.3 m/s
57% warningclass
18:00
21°
1011.8 hPa 2.2 mm
82%
20.6°
3
Windvlaag: 8 m/s
78% warningclass
19:00
21°
1011.9 hPa 1.6 mm
82%
20.0°
4
Windvlaag: 7.8 m/s
78%
20:00
21°
1012.2 hPa
25%
19.9°
3
Windvlaag: 7.4 m/s
49%
21:00
20°
1012.5 hPa
68%
19.7°
3
Windvlaag: 6.7 m/s
60%
22:00
20°
1013.0 hPa
73%
19.4°
3
Windvlaag: 6.9 m/s
57%
23:00
19°
1013.3 hPa
80%
19.2°
3
Windvlaag: 7.1 m/s
49%
 05:51     21:24    Daglengte: 15:33 Morgen
00:00
19°
1013.6 hPa
82%
19.0°
3
Windvlaag: 7.2 m/s
56%
01:00
19°
1014.2 hPa 0.6 mm
82%
18.8°
3
Windvlaag: 7.1 m/s
66%
02:00
19°
1014.5 hPa
79%
18.7°
2
Windvlaag: 7.1 m/s
65%
03:00
19°
1014.9 hPa
71%
18.6°
2
Windvlaag: 5.2 m/s
77%
04:00
18°
1015.2 hPa
71%
18.3°
2
Windvlaag: 4.4 m/s
63%
05:00
18°
1015.4 hPa
24%
18.1°
1
Windvlaag: 4.1 m/s
74%
06:00
18°
1015.6 hPa
15%
18.1°
1
Windvlaag: 4 m/s
84%
07:00
18°
1016.1 hPa
14%
18.3°
1
Windvlaag: 3.2 m/s
68%
08:00
19°
1016.5 hPa
14%
18.5°
1
Windvlaag: 3.4 m/s
86%
09:00
19°
1016.9 hPa
14%
18.9°
1
Windvlaag: 3.6 m/s
62%
10:00
20°
1017.4 hPa
14%
19.5°
1
Windvlaag: 3.6 m/s
55%
11:00
21°
1017.6 hPa
14%
20.1°
1
Windvlaag: 3.3 m/s
66%
12:00
22°
1017.9 hPa
14%
19.9°
1
Windvlaag: 3.1 m/s
74%
13:00
24°
1018.0 hPa
18%
17.8°
1
Windvlaag: 2.8 m/s
55%
14:00
25°
1018.2 hPa
49%
16.2°
1
Windvlaag: 2.7 m/s
73%
15:00
25°
1018.1 hPa
22%
16.3°
1
Windvlaag: 3.1 m/s
82%
16:00
25°
1017.8 hPa
65%
16.7°
1
Windvlaag: 3 m/s
82%
17:00
24°
1017.9 hPa
71%
17.3°
1
Windvlaag: 2.7 m/s
85%
18:00
24°
1017.8 hPa
33%
16.9°
1
Windvlaag: 2.2 m/s
82%
19:00
24°
1017.7 hPa
14%
16.9°
1
Windvlaag: 0.8 m/s
73%
20:00
23°
1017.5 hPa
14%
18.6°
1
Windvlaag: 0.5 m/s
50%
21:00
22°
1017.7 hPa
14%
18.9°
1
Windvlaag: 0.9 m/s
46%
22:00
21°
1017.7 hPa
14%
19.7°
2
Windvlaag: 2.3 m/s
19%
23:00
20°
1017.8 hPa
14%
19.7°
2
Windvlaag: 2.9 m/s
17%
 05:53     21:21    Daglengte: 15:28 Vrijdag 19 Aug
00:00
20°
1017.9 hPa
15%
19.4°
2
Windvlaag: 3 m/s
17%
01:00
20°
1017.9 hPa
25%
19.4°
2
Windvlaag: 2.7 m/s
18%
02:00
20°
1017.7 hPa
14%
19.4°
2
Windvlaag: 2.3 m/s
32%
03:00
19°
1017.6 hPa
14%
19.1°
2
Windvlaag: 1.5 m/s
17%
04:00
19°
1017.4 hPa
14%
19.0°
2
Windvlaag: 1.2 m/s
18%
05:00
19°
1017.2 hPa
56%
18.9°
2
Windvlaag: 1.9 m/s
54%
06:00
19°
1017.1 hPa
24%
18.8°
2
Windvlaag: 1.4 m/s
46%
07:00
19°
1017.1 hPa
14%
18.9°
2
Windvlaag: 1.8 m/s
85%
08:00
20°
1017.4 hPa
14%
19.4°
3
Windvlaag: 2.3 m/s
22%
09:00
21°
1017.5 hPa
14%
19.7°
3
Windvlaag: 2.5 m/s
51%
10:00
21°
1017.4 hPa
20%
20.1°
3
Windvlaag: 2.8 m/s
51%
11:00
23°
1017.2 hPa
79%
21.2°
3
Windvlaag: 3.9 m/s
54%
12:00
25°
1017.1 hPa
94%
15.2°
4
Windvlaag: 4.6 m/s
68%
13:00
26°
1017.0 hPa
92%
12.6°
4
Windvlaag: 4.8 m/s
67%
14:00
27°
Voelt als: 26.7°
1016.7 hPa
98%
12.0°
4
Windvlaag: 5 m/s
87%
15:00
27°
Voelt als: 27.0°
1016.6 hPa
40%
12.1°
5
Windvlaag: 6.1 m/s
89%
16:00
27°
Voelt als: 26.9°
1016.5 hPa
46%
11.6°
4
Windvlaag: 6.8 m/s
92%
17:00
27°
Voelt als: 27.0°
1016.3 hPa
80%
11.6°
4
Windvlaag: 6.9 m/s
94%
18:00
27°
Voelt als: 26.7°
1016.1 hPa
25%
11.6°
4
Windvlaag: 6.8 m/s
80%
19:00
26°
1016.1 hPa
30%
12.3°
4
Windvlaag: 6.9 m/s
71%
20:00
26°
1016.0 hPa
21%
14.5°
4
Windvlaag: 6.8 m/s
44%
21:00
24°
1016.1 hPa
22%
15.7°
3
Windvlaag: 6.5 m/s
73%
22:00
23°
1016.2 hPa
26%
15.5°
3
Windvlaag: 5.3 m/s
60%
23:00
23°
1016.1 hPa
22%
14.7°
3
Windvlaag: 4.7 m/s
51%
 05:56     21:18    Daglengte: 15:22 Zaterdag 20 Aug
00:00
22°
1016.1 hPa
21%
14.2°
3
Windvlaag: 4.9 m/s
16%
01:00
22°
1016.0 hPa
21%
13.3°
4
Windvlaag: 5.5 m/s
25%
02:00
21°
1015.8 hPa
21%
13.2°
4
Windvlaag: 5.6 m/s
38%
03:00
21°
1015.6 hPa
21%
13.6°
4
Windvlaag: 5.6 m/s
55%
04:00
20°
1015.4 hPa
21%
13.5°
4
Windvlaag: 5.5 m/s
39%
05:00
20°
1015.2 hPa
21%
13.8°
4
Windvlaag: 5.3 m/s
28%
06:00
20°
1015.0 hPa
21%
13.9°
4
Windvlaag: 5.4 m/s
18%
07:00
20°
1015.2 hPa
21%
14.2°
4
Windvlaag: 11.3 m/s
2%
08:00
20°
1015.2 hPa
21%
15.1°
5
Windvlaag: 11 m/s
13%
09:00
22°
1015.0 hPa
21%
16.4°
5
Windvlaag: 11.4 m/s
42%
10:00
23°
1015.0 hPa
21%
17.4°
5
Windvlaag: 11.8 m/s
14%
11:00
25°
1014.8 hPa
21%
18.5°
6
Windvlaag: 12.7 m/s
37%
12:00
26°
1014.5 hPa
21%
20.2°
6
Windvlaag: 13.1 m/s
24%
13:00
27°
1014.0 hPa
21%
21.4°
7
Windvlaag: 14.9 m/s
51%
Temp/Neerslag /Baro Onweer/Dauwpunt
    Temp Baro Neerslag Dauwpunt Wind Bewolking  
 05:48     21:27    Daglengte: 15:39 Vandaag
15:00
22°
1012.3 hPa 1.3 mm 21.0°
4
58% warningclass
18:00
21°
1011.8 hPa 3.3 mm 20.6°
3
78% warningclass
21:00
20°
1012.5 hPa 1.6 mm 19.7°
3
60%
 05:51     21:24    Daglengte: 15:33 Morgen
00:00
19°
1013.6 hPa   19.0°
3
56%
03:00
19°
1014.9 hPa 0.6 mm 18.6°
2
77%
06:00
18°
1015.6 hPa   18.1°
1
84%
09:00
19°
1016.9 hPa   18.9°
1
62%
12:00
22°
1017.9 hPa   19.9°
1
74%
15:00
25°
1018.1 hPa   16.3°
1
82%
18:00
24°
1017.8 hPa   16.9°
1
82%
21:00
22°
1017.7 hPa   18.9°
1
46%
 05:53     21:21    Daglengte: 15:28 Vrijdag 19 Aug
00:00
20°
1017.9 hPa   19.4°
2
17%
03:00
19°
1017.6 hPa   19.1°
2
17%
06:00
19°
1017.1 hPa   18.8°
2
46%
09:00
21°
1017.5 hPa   19.7°
3
51%
12:00
25°
1017.1 hPa   15.2°
4
68%
15:00
27°
Voelt als: 27.0°
1016.6 hPa   12.1°
5
89%
18:00
27°
Voelt als: 26.7°
1016.1 hPa   11.6°
4
80%
21:00
24°
1016.1 hPa   15.7°
3
73%
 05:56     21:18    Daglengte: 15:22 Zaterdag 20 Aug
00:00
22°
1016.1 hPa   14.2°
3
16%
03:00
21°
1015.6 hPa   13.6°
4
55%
06:00
20°
1015.0 hPa   13.9°
4
18%
09:00
22°
1015.0 hPa   16.4°
5
42%
12:00
26°
1014.5 hPa   20.2°
6
24%
15:00
27°
1013.5 hPa   22.9°
7
25%
18:00
26°
1013.9 hPa 14.0 mm 14.1°
4
1%
21:00
22°
1013.6 hPa 14.0 mm 15.4°
3
1%
 05:58     21:15    Daglengte: 15:17 Zondag 21 Aug
00:00
20°
1012.6 hPa 14.0 mm 13.1°
5
1%
03:00
19°
1011.9 hPa 14.0 mm 13.9°
5
1%
06:00
18°
1011.2 hPa 14.0 mm 13.3°
5
1%
09:00
19°
1010.5 hPa 14.0 mm 14.6°
4
1%
12:00
20°
1009.6 hPa 14.1 mm 15.0°
3
1%
15:00
18°
1009.4 hPa 15.8 mm 16.4°
4
1%
18:00
17°
1009.4 hPa 21.8 mm 16.2°
4
1%
21:00
17°
1010.2 hPa 22.1 mm 16.5°
2
1%
 06:01     21:12    Daglengte: 15:11 Maandag 22 Aug
00:00
16°
1009.9 hPa 22.1 mm 15.1°
1
1%
03:00
15°
1010.2 hPa 22.1 mm 12.6°
2
1%
06:00
14°
1010.2 hPa 22.1 mm 11.7°
2
1%
09:00
16°
1010.6 hPa 22.1 mm 13.6°
2
1%
12:00
21°
1010.5 hPa 22.1 mm 11.5°
2
1%
15:00
21°
1010.7 hPa 22.1 mm 11.2°
3
1%
18:00
20°
1010.8 hPa 22.1 mm 13.3°
4
0%
21:00
16°
1012.1 hPa 22.5 mm 13.0°
3
0%
 06:04     21:09    Daglengte: 15:05 Dinsdag 23 Aug
00:00
15°
1013.2 hPa 22.7 mm 11.4°
3
0%
03:00
15°
1015.2 hPa 22.8 mm 10.6°
3
0%
06:00
14°
1016.9 hPa 22.8 mm 11.4°
3
0%
09:00
17°
1019.9 hPa 22.8 mm 12.5°
4
0%
12:00
18°
1022.5 hPa 22.8 mm 11.6°
4
0%
15:00
18°
1024.6 hPa 22.8 mm 10.2°
3
0%
18:00
18°
1026.1 hPa 22.8 mm 9.5°
2
0%
21:00
13°
1027.4 hPa 22.8 mm 9.2°
2
0%
 06:06     21:05    Daglengte: 14:59 Woensdag 24 Aug
00:00
12°
1028.6 hPa 22.8 mm 7.7°
2
0%
03:00
11°
1029.5 hPa 22.8 mm 7.3°
2
0%
06:00
10°
1029.6 hPa 22.8 mm 7.3°
3
0%
09:00
15°
1029.8 hPa 22.8 mm 8.9°
3
1%
12:00
21°
1029.2 hPa   8.8°
3
1%
15:00
22°
1028.2 hPa 45.7 mm 8.6°
3
1%
21:00
19°
1027.3 hPa 45.7 mm 13.1°
2
1%
 06:09     21:02    Daglengte: 14:53 Donderdag 25 Aug
03:00
16°
1026.1 hPa 45.7 mm 12.3°
3
1%
09:00
17°
1024.1 hPa 47.0 mm 15.5°
5
1%
15:00
23°
1024.9 hPa 49.0 mm 18.3°
3
1%
21:00
22°
1024.5 hPa 49.0 mm 16.4°
3
1%
 06:11     20:59    Daglengte: 14:48 Vrijdag 26 Aug
03:00
19°
1024.7 hPa 49.0 mm 15.0°
4
1%
09:00
22°
1025.7 hPa 49.0 mm 14.5°
4
1%
15:00
29°
Voelt als: 28.6°
1025.7 hPa 49.0 mm 12.3°
3
0%
21:00
20°
1026.7 hPa 49.0 mm 14.7°
1
0%
 06:14     20:56    Daglengte: 14:42 Zaterdag 27 Aug
03:00
18°
1028.2 hPa 49.0 mm 14.3°
2
0%
09:00
16°
1022.5 hPa 0.2 mm 12.3°
0
44%
15:00
20°
1022.6 hPa 0.2 mm 12.8°
2
54%
21:00
16°
1022.5 hPa 0.1 mm 12.2°
1
56%
 06:16     20:53    Daglengte: 14:37 Zondag 28 Aug
03:00
14°
1022.8 hPa 0.2 mm 11.1°
1
51%
09:00
16°
1022.9 hPa 0.4 mm 11.7°
0
50%
15:00
19°
1022.9 hPa 0.4 mm 12.1°
2
51%
21:00
15°
1022.6 hPa 0.2 mm 11.7°
2
47%
 06:19     20:50    Daglengte: 14:31 Maandag 29 Aug
03:00
13°
1022.9 hPa 0.1 mm 10.6°
0
57%
09:00
15°
1022.7 hPa 0.5 mm 10.7°
0
54%
15:00
19°
1022.5 hPa 0.4 mm 11.3°
2
50%
21:00
15°
1021.8 hPa 0.2 mm 11.0°
1
43%
 06:21     20:46    Daglengte: 14:25 Dinsdag 30 Aug
03:00
13°
1021.8 hPa   9.9°
0
47%
09:00
15°
1021.4 hPa   10.3°
1
39%
15:00
19°
1021.1 hPa   10.8°
2
40%
21:00
14°
1020.4 hPa   10.0°
1
33%
 06:24     20:43    Daglengte: 14:19 Woensdag 31 Aug
03:00
13°
1019.9 hPa   9.7°
1
37%
09:00
14°
1018.9 hPa   9.7°
1
54%
15:00
18°
1018.0 hPa 0.2 mm 10.7°
1
58%
21:00
14°
1016.9 hPa 0.5 mm 10.0°
0
54%
 06:27     20:40    Daglengte: 14:13 Donderdag 01 Sep
03:00
12°
1016.3 hPa 0.5 mm 9.1°
1
53%
09:00
14°
1015.5 hPa 0.3 mm 9.8°
1
60%
  CAPE Lifted Index Hail Supercell Tornado SRH 3km CL BTM PRES CL TOP PRES Swiss DWD icon SMHI TS
 05:48     21:27    Daglengte: 15:39 Vandaag
14:00 813 J/kg -2.8 K 0 % 0 % 0 % 0 m²/s² 0 0 -2.77 80
15:00 710 J/kg -2.6 K 0 % 0 % 0 % 0 m²/s² 0 0 -2.51 95
16:00 703 J/kg -2.4 K 0 % 0 % 0 % 0 m²/s² 0 0 -2.22 95
17:00 700 J/kg -2.1 K 0 % 0 % 0 % 0 m²/s² 0 0 -1.53 95
18:00 682 J/kg -2.0 K 0 % 0 % 0 % 0 m²/s² 0 0 -0.5 95
19:00 855 J/kg -2.6 K 0 % 0 % 0 % 0 m²/s² 0 0 -0.62 80
20:00 665 J/kg -2.6 K 0 % 0 % 0 % 0 m²/s² 0 0 -0.68 3
21:00 558 J/kg -2.5 K 0 % 0 % 0 % 0 m²/s² 0 0 -1.18 3
22:00 472 J/kg -2.1 K 0 % 0 % 0 % 0 m²/s² 0 0 -1.14 3
23:00 274 J/kg -1.8 K 0 % 0 % 0 % 0 m²/s² 0 0 -0.84 80
 05:51     21:24    Daglengte: 15:33 Morgen
00:00 113 J/kg -1.7 K 0 % 0 % 0 % 0 m²/s² 0 0 -0.65 3
01:00 91 J/kg -2.0 K 0 % 0 % 0 % 0 m²/s² 0 0 -0.35 80
02:00 91 J/kg -1.5 K 0 % 0 % 0 % 0 m²/s² 0 0 0.15 3
03:00 31 J/kg -0.8 K 0 % 0 % 0 % 0 m²/s² 0 0 0.91 3
04:00 21 J/kg -0.8 K 0 % 0 % 0 % 0 m²/s² 0 0 0.58 3
05:00 0 J/kg -1.1 K 0 % 0 % 0 % 0 m²/s² 0 0 0.61 3
06:00 0 J/kg -0.8 K 0 % 0 % 0 % 0 m²/s² 0 0 1.18 45
07:00 0 J/kg -1.0 K 0 % 0 % 0 % 0 m²/s² 0 0 0.59 45
08:00 41 J/kg -1.9 K 0 % 0 % 0 % 0 m²/s² 0 0 -0.52 45
09:00 251 J/kg -3.0 K 0 % 0 % 0 % 0 m²/s² 0 0 -1.95 3
10:00 544 J/kg -2.8 K 0 % 0 % 0 % 0 m²/s² 0 0 -1.9 3
11:00 732 J/kg -3.2 K 0 % 0 % 0 % 0 m²/s² 0 0 -2.39 3
12:00 784 J/kg -3.4 K 0 % 0 % 0 % 0 m²/s² 0 0 -2.26 3
13:00 909 J/kg -3.5 K 0 % 0 % 0 % 0 m²/s² 0 0 -2.24 3
14:00 1142 J/kg -4.1 K 0 % 0 % 0 % 0 m²/s² 0 0 -2.72 3
15:00 1289 J/kg -4.6 K 0 % 0 % 0 % 0 m²/s² 0 0 -3.07 3
16:00 1308 J/kg -4.7 K 0 % 0 % 0 % 0 m²/s² 0 0 -3.38 3
17:00 1210 J/kg -4.2 K 0 % 0 % 0 % 0 m²/s² 0 0 -2.94 3
18:00 1283 J/kg -4.3 K 0 % 0 % 0 % 0 m²/s² 0 0 -2.44 3
19:00 1465 J/kg -5.0 K 0 % 0 % 0 % 0 m²/s² 0 0 -3.14 3
20:00 1543 J/kg -4.9 K 0 % 0 % 0 % 0 m²/s² 0 0 -3.04 3
21:00 1772 J/kg -5.7 K 0 % 0 % 0 % 0 m²/s² 0 0 -4.11 3
22:00 1453 J/kg -4.9 K 0 % 0 % 0 % 0 m²/s² 0 0 -3.31 1
23:00 1059 J/kg -4.0 K 0 % 0 % 0 % 0 m²/s² 0 0 -2.44 2
 05:53     21:21    Daglengte: 15:28 Vrijdag 19 Aug
00:00 681 J/kg -3.1 K 0 % 0 % 0 % 0 m²/s² 0 0 -1.72 2
01:00 250 J/kg -2.6 K 0 % 0 % 0 % 0 m²/s² 0 0 -1.43 2
02:00 34 J/kg -1.9 K 0 % 0 % 0 % 0 m²/s² 0 0 -0.64 3
03:00 0 J/kg -2.8 K 0 % 0 % 0 % 0 m²/s² 0 0 -1.57 2
04:00 0 J/kg -3.4 K 0 % 0 % 0 % 0 m²/s² 0 0 -2.14 3
05:00 0 J/kg -3.2 K 0 % 0 % 0 % 0 m²/s² 0 0 -2.33 3
06:00 0 J/kg -1.6 K 0 % 0 % 0 % 0 m²/s² 0 0 -0.97 3
07:00 0 J/kg -2.1 K 0 % 0 % 0 % 0 m²/s² 0 0 -2.01 3
08:00 0 J/kg -0.8 K 0 % 0 % 0 % 0 m²/s² 0 0 -0.44 2
09:00 107 J/kg -1.2 K 0 % 0 % 0 % 0 m²/s² 0 0 -0.03 3
10:00 437 J/kg -2.3 K 0 % 0 % 0 % 0 m²/s² 0 0 -0.62 3
11:00 830 J/kg -3.6 K 0 % 0 % 0 % 0 m²/s² 0 0 -1.68 3
12:00 1027 J/kg -3.8 K 0 % 0 % 0 % 0 m²/s² 0 0 -1.46 3
13:00 446 J/kg -2.1 K 0 % 0 % 0 % 0 m²/s² 0 0 0.93 3
14:00 314 J/kg -1.8 K 0 % 0 % 0 % 0 m²/s² 0 0 1.59 3
15:00 281 J/kg -1.5 K 0 % 0 % 0 % 0 m²/s² 0 0 1.14 3
16:00 225 J/kg -1.3 K 0 % 0 % 0 % 0 m²/s² 0 0 1.04 3
17:00 189 J/kg -1.3 K 0 % 0 % 0 % 0 m²/s² 0 0 1.1 3
18:00 189 J/kg -1.1 K 0 % 0 % 0 % 0 m²/s² 0 0 1.24 3
19:00 151 J/kg -0.8 K 0 % 0 % 0 % 0 m²/s² 0 0 1.75 3
20:00 232 J/kg -1.0 K 0 % 0 % 0 % 0 m²/s² 0 0 2.03 3
21:00 156 J/kg -0.7 K 0 % 0 % 0 % 0 m²/s² 0 0 2.69 3
22:00 113 J/kg -0.9 K 0 % 0 % 0 % 0 m²/s² 0 0 2.58 3
23:00 9 J/kg -0.3 K 0 % 0 % 0 % 0 m²/s² 0 0 3.45 2
 05:56     21:18    Daglengte: 15:22 Zaterdag 20 Aug
00:00 0 J/kg 1.2 K 0 % 0 % 0 % 0 m²/s² 0 0 5.16 2
01:00 0 J/kg 1.9 K 0 % 0 % 0 % 0 m²/s² 0 0 5.65 3
02:00 0 J/kg 2.3 K 0 % 0 % 0 % 0 m²/s² 0 0 5.6 3
03:00 0 J/kg 1.8 K 0 % 0 % 0 % 0 m²/s² 0 0 4.92 3
04:00 0 J/kg 0.5 K 0 % 0 % 0 % 0 m²/s² 0 0 3.53 3
05:00 0 J/kg 0.6 K 0 % 0 % 0 % 0 m²/s² 0 0 3.09 2
06:00 0 J/kg 0.6 K 0 % 0 % 0 % 0 m²/s² 0 0 2.79 1
07:00 0 J/kg 0.4 K 0 % 0 % 0 % 0 m²/s² 0 0 2.26 1
08:00 0 J/kg 0.0 K 0 % 0 % 0 % 0 m²/s² 0 0 1.74 1
09:00 0 J/kg 0.5 K 0 % 0 % 0 % 0 m²/s² 0 0 1.55 3
10:00 20 J/kg 0.3 K 0 % 0 % 0 % 0 m²/s² 0 0 0.84 2
11:00 24 J/kg 0.1 K 0 % 0 % 0 % 0 m²/s² 0 0 0.31 3
12:00 6 J/kg 0.0 K 0 % 0 % 0 % 0 m²/s² 0 0 0 3
13:00 0 J/kg 0.1 K 0 % 0 % 0 % 0 m²/s² 0 0 0.49 3
Temp Baro Wind Neerslag
  EWN Forecast EWN WRFDA DWD ICON FMI HIRLAM MET Norway GFS
 05:48     21:27    Daglengte: 15:39 Vandaag
15:00 22.2° 1012.3 hPa 3.8 m/s 1.3 mm 23.6° 1012.9 hPa 4.8 m/s 0.8 mm 22.4° 1012.3 hPa 4.2 m/s 1.2 mm 22.1° 1011.7 hPa 1.9 m/s 0.0 mm 22.0° 1012.2 hPa 4.7 m/s
18:00 21.4° 1011.8 hPa 3.4 m/s 3.3 mm 22.5° 1012.8 hPa 6.0 m/s 3.9 mm 22.0° 1011.8 hPa 3.8 m/s 4.7 mm 20.7° 1011.5 hPa 2.0 m/s 0.0 mm 19.7° 1012.2 hPa 5.4 m/s
21:00 20.2° 1012.5 hPa 2.8 m/s 1.6 mm 20.8° 1013.2 hPa 3.6 m/s 4.1 mm 20.3° 1012.5 hPa 2.7 m/s 2.5 mm 19.5° 1012.4 hPa 1.7 m/s 0.0 mm 19.6° 1012.6 hPa 5.0 m/s
 05:51     21:24    Daglengte: 15:33 Morgen
00:00 19.1° 1013.6 hPa 2.8 m/s 0.0 mm 18.8° 1014.1 hPa 4.1 m/s 4.3 mm 19.3° 1013.7 hPa 2.6 m/s 1.0 mm 18.2° 1013.4 hPa 2.1 m/s 0.0 mm 18.4° 1013.1 hPa 4.5 m/s
03:00 18.7° 1014.9 hPa 2.1 m/s 0.6 mm 17.7° 1014.6 hPa 2.9 m/s 5.4 mm 18.9° 1015.4 hPa 2.1 m/s 0.6 mm 17.9° 1014.9 hPa 1.5 m/s 0.0 mm 18.2° 1014.0 hPa 3.8 m/s
06:00 18.1° 1015.6 hPa 1.1 m/s 0.0 mm 17.1° 1015.0 hPa 2.1 m/s 5.5 mm 18.7° 1015.6 hPa 0.8 m/s 0.0 mm 17.4° 1015.8 hPa 0.9 m/s 0.0 mm 17.4° 1014.7 hPa 3.2 m/s
09:00 19.2° 1016.9 hPa 1.0 m/s 0.0 mm 19.5° 1017.1 hPa 1.6 m/s 5.5 mm 20.0° 1017.2 hPa 0.6 m/s 0.0 mm 18.9° 1016.9 hPa 0.8 m/s 0.0 mm 20.5° 1016.1 hPa 1.9 m/s
12:00 22.0° 1017.9 hPa 1.4 m/s 0.0 mm 21.9° 1017.8 hPa 2.1 m/s 5.5 mm 23.0° 1018.0 hPa 1.4 m/s 0.0 mm 21.9° 1017.9 hPa 0.6 m/s 0.0 mm 23.6° 1016.9 hPa 2.0 m/s
15:00 25.1° 1018.1 hPa 0.9 m/s 0.0 mm 24.6° 1017.9 hPa 1.4 m/s 5.5 mm 25.0° 1018.2 hPa 0.8 m/s 0.0 mm 26.5° 1018.2 hPa 1.3 m/s 0.0 mm 22.2° 1017.3 hPa 3.3 m/s
18:00 24.1° 1017.8 hPa 1.1 m/s 0.0 mm 23.4° 1017.8 hPa 1.7 m/s 19.2 mm 23.8° 1017.8 hPa 0.6 m/s 0.1 mm 25.1° 1017.6 hPa 2.0 m/s 0.0 mm 20.1° 1017.4 hPa 1.7 m/s
21:00 22.1° 1017.7 hPa 1.4 m/s 0.0 mm 22.3° 1018.1 hPa 2.1 m/s 27.3 mm 22.2° 1018.0 hPa 1.3 m/s 0.0 mm 20.9° 1017.3 hPa 1.3 m/s 0.0 mm 18.4° 1017.7 hPa 0.6 m/s
 05:53     21:21    Daglengte: 15:28 Vrijdag 19 Aug
00:00 19.7° 1017.9 hPa 1.9 m/s 0.0 mm 20.1° 1017.9 hPa 3.1 m/s 27.7 mm 19.8° 1018.3 hPa 2.0 m/s 0.0 mm 18.0° 1017.5 hPa 0.8 m/s 0.0 mm 18.1° 1017.9 hPa 2.0 m/s
03:00 19.4° 1017.6 hPa 2.3 m/s 0.0 mm 18.3° 1017.6 hPa 2.8 m/s 27.7 mm 19.5° 1017.6 hPa 2.4 m/s 0.0 mm 18.8° 1017.4 hPa 1.7 m/s 0.0 mm 17.8° 1018.0 hPa 2.0 m/s
06:00 19.1° 1017.1 hPa 2.4 m/s 0.0 mm 17.5° 1017.2 hPa 3.1 m/s 27.7 mm 19.4° 1017.1 hPa 2.7 m/s 0.2 mm 18.2° 1017.1 hPa 1.3 m/s 0.0 mm 17.5° 1018.0 hPa 2.4 m/s
09:00 20.6° 1017.5 hPa 2.7 m/s 0.0 mm 22.3° 1017.8 hPa 2.3 m/s 27.8 mm 21.6° 1017.8 hPa 3.4 m/s 0.0 mm 17.9° 1017.5 hPa 1.7 m/s 0.0 mm 19.9° 1018.2 hPa 2.9 m/s
12:00 25.1° 1017.1 hPa 3.7 m/s 0.0 mm 27.7° 1016.8 hPa 4.6 m/s 27.8 mm 25.2° 1017.5 hPa 3.8 m/s 0.1 mm 25.7° 1018.0 hPa 4.0 m/s
15:00 27.3° 1016.6 hPa 4.5 m/s 0.0 mm 30.1° 1015.7 hPa 7.0 m/s 27.8 mm 27.2° 1017.2 hPa 4.2 m/s 0.1 mm 28.2° 1017.3 hPa 4.5 m/s
18:00 26.8° 1016.1 hPa 4.4 m/s 0.0 mm 29.6° 1015.2 hPa 7.2 m/s 27.8 mm 25.9° 1016.6 hPa 4.0 m/s 0.0 mm 27.2° 1017.0 hPa 3.7 m/s
21:00 24.4° 1016.1 hPa 3.2 m/s 0.0 mm 24.9° 1014.2 hPa 3.4 m/s 27.8 mm 24.0° 1016.6 hPa 2.9 m/s 0.0 mm 22.5° 1017.0 hPa 2.4 m/s
 05:56     21:18    Daglengte: 15:22 Zaterdag 20 Aug
00:00 22.2° 1016.1 hPa 3.3 m/s 0.0 mm 22.6° 1014.3 hPa 5.4 m/s 27.8 mm 21.4° 1016.7 hPa 2.8 m/s 0.0 mm 20.8° 1016.6 hPa 4.3 m/s
03:00 21.0° 1015.6 hPa 3.5 m/s 0.0 mm 21.2° 1013.9 hPa 4.9 m/s 27.8 mm 20.2° 1016.3 hPa 3.0 m/s 0.0 mm 19.7° 1016.3 hPa 4.4 m/s
06:00 19.7° 1015.0 hPa 4.0 m/s 0.0 mm 19.5° 1013.5 hPa 4.7 m/s 27.8 mm 19.4° 1015.7 hPa 3.5 m/s 0.0 mm 19.1° 1016.0 hPa 4.6 m/s
09:00 21.8° 1015.0 hPa 4.7 m/s 0.0 mm 21.6° 1014.2 hPa 5.0 m/s 27.8 mm 21.8° 1015.2 hPa 4.6 m/s 0.0 mm 21.9° 1015.9 hPa 4.9 m/s
12:00 25.5° 1014.5 hPa 6.0 m/s 0.0 mm 22.2° 1014.4 hPa 4.8 m/s 27.9 mm 26.3° 1014.5 hPa 6.3 m/s 0.0 mm 25.9° 1015.3 hPa 5.1 m/s
15:00 27.1° 1013.5 hPa 7.5 m/s 0.0 mm 21.2° 1014.0 hPa 5.1 m/s 29.6 mm 28.6° 1013.3 hPa 8.1 m/s 0.0 mm 27.3° 1014.3 hPa 5.2 m/s
18:00 26.3° 1013.9 hPa 4.2 m/s 14.0 mm 26.3° 1013.9 hPa 4.2 m/s 14.0 mm
21:00 22.1° 1013.6 hPa 3.0 m/s 14.0 mm 22.1° 1013.6 hPa 3.0 m/s 14.0 mm
 05:58     21:15    Daglengte: 15:17 Zondag 21 Aug
00:00 20.0° 1012.6 hPa 5.0 m/s 14.0 mm 20.0° 1012.6 hPa 5.0 m/s 14.0 mm
03:00 19.5° 1011.9 hPa 4.8 m/s 14.0 mm 19.5° 1011.9 hPa 4.8 m/s 14.0 mm
06:00 18.2° 1011.2 hPa 4.6 m/s 14.0 mm 18.2° 1011.2 hPa 4.6 m/s 14.0 mm
09:00 19.1° 1010.5 hPa 4.2 m/s 14.0 mm 19.1° 1010.5 hPa 4.2 m/s 14.0 mm
12:00 19.9° 1009.6 hPa 3.3 m/s 14.1 mm 19.9° 1009.6 hPa 3.3 m/s 14.1 mm
15:00 18.5° 1009.4 hPa 4.0 m/s 15.8 mm 18.5° 1009.4 hPa 4.0 m/s 15.8 mm
18:00 17.1° 1009.4 hPa 4.2 m/s 21.8 mm 17.1° 1009.4 hPa 4.2 m/s 21.8 mm
21:00 17.2° 1010.2 hPa 1.7 m/s 22.1 mm 17.2° 1010.2 hPa 1.7 m/s 22.1 mm
 06:01     21:12    Daglengte: 15:11 Maandag 22 Aug
00:00 15.7° 1009.9 hPa 1.4 m/s 22.1 mm 15.7° 1009.9 hPa 1.4 m/s 22.1 mm
03:00 14.6° 1010.2 hPa 2.0 m/s 22.1 mm 14.6° 1010.2 hPa 2.0 m/s 22.1 mm
06:00 13.5° 1010.2 hPa 2.3 m/s 22.1 mm 13.5° 1010.2 hPa 2.3 m/s 22.1 mm
09:00 16.1° 1010.6 hPa 1.8 m/s 22.1 mm 16.1° 1010.6 hPa 1.8 m/s 22.1 mm
12:00 20.6° 1010.5 hPa 2.0 m/s 22.1 mm 20.6° 1010.5 hPa 2.0 m/s 22.1 mm
15:00 21.4° 1010.7 hPa 2.7 m/s 22.1 mm 21.4° 1010.7 hPa 2.7 m/s 22.1 mm
18:00 20.5° 1010.8 hPa 4.3 m/s 22.1 mm 20.5° 1010.8 hPa 4.3 m/s 22.1 mm
21:00 16.2° 1012.1 hPa 3.3 m/s 22.5 mm 16.2° 1012.1 hPa 3.3 m/s 22.5 mm
 06:04     21:09    Daglengte: 15:05 Dinsdag 23 Aug
00:00 15.2° 1013.2 hPa 3.3 m/s 22.7 mm 15.2° 1013.2 hPa 3.3 m/s 22.7 mm
03:00 14.5° 1015.2 hPa 3.0 m/s 22.8 mm 14.5° 1015.2 hPa 3.0 m/s 22.8 mm
06:00 13.7° 1016.9 hPa 3.3 m/s 22.8 mm 13.7° 1016.9 hPa 3.3 m/s 22.8 mm
09:00 16.5° 1019.9 hPa 4.2 m/s 22.8 mm 16.5° 1019.9 hPa 4.2 m/s 22.8 mm
12:00 17.9° 1022.5 hPa 3.6 m/s 22.8 mm 17.9° 1022.5 hPa 3.6 m/s 22.8 mm
15:00 18.3° 1024.6 hPa 3.2 m/s 22.8 mm 18.3° 1024.6 hPa 3.2 m/s 22.8 mm
18:00 17.5° 1026.1 hPa 2.3 m/s 22.8 mm 17.5° 1026.1 hPa 2.3 m/s 22.8 mm
21:00 13.1° 1027.4 hPa 1.6 m/s 22.8 mm 13.1° 1027.4 hPa 1.6 m/s 22.8 mm
 06:06     21:05    Daglengte: 14:59 Woensdag 24 Aug
00:00 11.5° 1028.6 hPa 1.7 m/s 22.8 mm 11.5° 1028.6 hPa 1.7 m/s 22.8 mm
03:00 10.7° 1029.5 hPa 2.4 m/s 22.8 mm 10.7° 1029.5 hPa 2.4 m/s 22.8 mm
06:00 10.4° 1029.6 hPa 2.5 m/s 22.8 mm 10.4° 1029.6 hPa 2.5 m/s 22.8 mm
09:00 15.2° 1029.8 hPa 3.0 m/s 22.8 mm 15.2° 1029.8 hPa 3.0 m/s 22.8 mm
12:00 20.9° 1029.2 hPa 3.3 m/s 22.8 mm 20.9° 1029.2 hPa 3.3 m/s 22.8 mm
15:00 22.2° 1028.2 hPa 3.0 m/s 22.8 mm 22.2° 1028.2 hPa 3.0 m/s 22.8 mm
21:00 18.6° 1027.3 hPa 2.3 m/s 22.8 mm 18.6° 1027.3 hPa 2.3 m/s 22.8 mm
 06:09     21:02    Daglengte: 14:53 Donderdag 25 Aug
03:00 16.5° 1026.1 hPa 3.3 m/s 22.8 mm 16.5° 1026.1 hPa 3.3 m/s 22.8 mm
09:00 17.2° 1024.1 hPa 5.1 m/s 24.1 mm 17.2° 1024.1 hPa 5.1 m/s 24.1 mm
15:00 23.1° 1024.9 hPa 3.2 m/s 24.5 mm 23.1° 1024.9 hPa 3.2 m/s 24.5 mm
21:00 21.8° 1024.5 hPa 2.8 m/s 24.5 mm 21.8° 1024.5 hPa 2.8 m/s 24.5 mm
 06:11     20:59    Daglengte: 14:48 Vrijdag 26 Aug
03:00 18.9° 1024.7 hPa 3.6 m/s 24.5 mm 18.9° 1024.7 hPa 3.6 m/s 24.5 mm
09:00 22.0° 1025.7 hPa 3.9 m/s 24.5 mm 22.0° 1025.7 hPa 3.9 m/s 24.5 mm
15:00 29.5° 1025.7 hPa 3.1 m/s 24.5 mm 29.5° 1025.7 hPa 3.1 m/s 24.5 mm
21:00 20.0° 1026.7 hPa 0.8 m/s 24.5 mm 20.0° 1026.7 hPa 0.8 m/s 24.5 mm
 06:14     20:56    Daglengte: 14:42 Zaterdag 27 Aug
03:00 18.3° 1028.2 hPa 2.4 m/s 24.5 mm 18.3° 1028.2 hPa 2.4 m/s 24.5 mm
09:00 16.3° 1022.5 hPa 0.1 m/s 0.2 mm
15:00 20.2° 1022.6 hPa 2.0 m/s 0.2 mm
21:00 16.4° 1022.5 hPa 0.8 m/s 0.1 mm
 06:16     20:53    Daglengte: 14:37 Zondag 28 Aug
03:00 14.3° 1022.8 hPa 0.7 m/s 0.2 mm
09:00 15.9° 1022.9 hPa 0.4 m/s 0.4 mm
15:00 19.5° 1022.9 hPa 2.3 m/s 0.4 mm
21:00 15.3° 1022.6 hPa 1.5 m/s 0.2 mm
 06:19     20:50    Daglengte: 14:31 Maandag 29 Aug
03:00 13.5° 1022.9 hPa 0.3 m/s 0.1 mm
09:00 14.8° 1022.7 hPa 0.2 m/s 0.5 mm
15:00 18.9° 1022.5 hPa 2.1 m/s 0.4 mm
21:00 14.7° 1021.8 hPa 1.1 m/s 0.2 mm
 06:21     20:46    Daglengte: 14:25 Dinsdag 30 Aug
03:00 12.9° 1021.8 hPa 0.3 m/s 0.0 mm
09:00 14.8° 1021.4 hPa 0.6 m/s 0.0 mm
15:00 18.6° 1021.1 hPa 2.2 m/s 0.0 mm
21:00 14.3° 1020.4 hPa 0.9 m/s 0.0 mm
 06:24     20:43    Daglengte: 14:19 Woensdag 31 Aug
03:00 12.7° 1019.9 hPa 0.5 m/s 0.0 mm
09:00 14.2° 1018.9 hPa 1.1 m/s 0.0 mm
15:00 18.2° 1018.0 hPa 1.3 m/s 0.2 mm
21:00 14.3° 1016.9 hPa 0.5 m/s 0.5 mm
 06:27     20:40    Daglengte: 14:13 Donderdag 01 Sep
03:00 12.4° 1016.3 hPa 1.0 m/s 0.5 mm
09:00 13.7° 1015.5 hPa 0.8 m/s 0.3 mm
FMI Hirlam - 7.5 km EWN WRFDA - 12 km DWD ICON - 7 km GFS - 25 km Basiskaart






























































Updatetijd (Europe/Amsterdam) Resolutie Lengte Stap
FMI Hirlam 07:15, 13:15, 19:15, 01:15 7.5 km 49h 1h
EWN WRFDA 10:15, 16:15, 22:15, 04:15 12 km 73h 1h
DWD ICON 11:45, 17:45, 23:45, 05:45 7 km 75h 1h
GFS 08:15, 14:15, 20:15, 02:15 25 km 237h 3h
30+ mm
25-30 mm
20-25 mm
15-20 mm
10-15 mm
6-10 mm
4-6 mm
2-4 mm
1-2 mm
0.5-1 mm
0.2-0.5 mm
0.1-0.2 mm
30+ mm
25-30 mm
20-25 mm
15-20 mm
10-15 mm
6-10 mm
4-6 mm
2-4 mm
1-2 mm
0.5-1 mm
0.2-0.5 mm
0.1-0.2 mm
Sneeuwval
Natte sneeuw
Hagel
Vorst
30+ mm
25-30 mm
20-25 mm
15-20 mm
10-15 mm
6-10 mm
4-6 mm
2-4 mm
1-2 mm
0.5-1 mm
0.2-0.5 mm
0.1-0.2 mm
Sneeuwval
Natte sneeuw
Hagel
Vorst
Onweer
50 mm
40 mm
30 mm
26 mm
22 mm
18 mm
14 mm
10 mm
9 mm
8 mm
7 mm
6 mm
5 mm
4.5 mm
4 mm
3.5 mm
3 mm
2.5 mm
2 mm
1.5 mm
1 mm
0.8 mm
0.6 mm
0.4 mm
0.2 mm
0.05 mm
35°
30°
25°
20°
15°
10°
-5°
-10°
-15°
-20°
-25°
-30°
-35°
33> m/s
29 m/s
25 m/s
21 m/s
17 m/s
14 m/s
11 m/s
8 m/s
5 m/s
3 m/s
0 m/s
2600 J/kg
2400 J/kg
2200 J/kg
2000 J/kg
1800 J/kg
1600 J/kg
1400 J/kg
1200 J/kg
1000 J/kg
800 J/kg
600 J/kg
400 J/kg
200 J/kg
70 dBZ
65 dBZ
60 dBZ
55 dBZ
50 dBZ
45 dBZ
40 dBZ
35 dBZ
30 dBZ
25 dBZ
20 dBZ
15 dBZ
10 dBZ
5 dBZ
-1 K
-2 K
-3 K
-4 K
-5 K
-6 K
-7 K
-8 K
-9 K
950 m²/s²
900 m²/s²
850 m²/s²
800 m²/s²
750 m²/s²
700 m²/s²
650 m²/s²
600 m²/s²
550 m²/s²
500 m²/s²
450 m²/s²
400 m²/s²
350 m²/s²
300 m²/s²
250 m²/s²
200 m²/s²
150 m²/s²
100 m²/s²
46 m/s
44 m/s
42 m/s
40 m/s
38 m/s
36 m/s
34 m/s
32 m/s
30 m/s
28 m/s
26 m/s
24 m/s
22 m/s
20 m/s
16 m/s
12 m/s
8 m/s
4 m/s
30 m/s
28 m/s
26 m/s
24 m/s
22 m/s
20 m/s
18 m/s
16 m/s
14 m/s
12 m/s
10 m/s
8 m/s
6 m/s
4 m/s
2 m/s
3.0
2.8
2.6
2.4
2.2
2.0
1.8
1.6
1.4
1.2
1.0
0.8
0.6
0.4
0.2
15
14
13
12
11
10
9
8
7
6
5
4
3
2
1
90%
80%
70%
60%
50%
40%
30%
20%
10%
42
40
38
36
34
32
30
28
26
24
22
20
18
16
14
12
90+ cm
80-90 cm
70-80 cm
60-70 cm
50-60 cm
40-50 cm
30-40 cm
20-30 cm
10-20 cm
1-10 cm
Sneeuwval
Natte sneeuw
Regen
>120 mm
115 mm
110 mm
105 mm
100 mm
95 mm
90 mm
85 mm
80 mm
75 mm
70 mm
65 mm
60 mm
55 mm
50 mm
45 mm
45 mm
40 mm
35 mm
30 mm
25 mm
20 mm
15 mm
10 mm
5 mm
0.1 mm
960 hPa
880 hPa
800 hPa
720 hPa
640 hPa
560 hPa
584 gpdm
568 gpdm
552 gpdm
536 gpdm
520 gpdm
504 gpdm
488 gpdm
Extreem zwaar Noodweer Kans op onweer
15% 15% 5% 50% 15%

Dag




Kaart






35°
30°
25°
20°
15°
10°
-5°
-10°
-15°
-20°
-25°
-30°
-35°
33> m/s
29 m/s
25 m/s
21 m/s
17 m/s
14 m/s
11 m/s
8 m/s
5 m/s
3 m/s
0 m/s
Extreem zwaar Noodweer Kans op onweer
15% 15% 5% 50% 15%
>120 mm
115 mm
110 mm
105 mm
100 mm
95 mm
90 mm
85 mm
80 mm
75 mm
70 mm
65 mm
60 mm
55 mm
50 mm
45 mm
45 mm
40 mm
35 mm
30 mm
25 mm
20 mm
15 mm
10 mm
5 mm
0.1 mm
Onweer risico kaarten - De groene en gele kleur geeft de kans op onweer aan binnen 40 km van een punt. Oranje, rood en violet hebben hetzelfde niveau zoals je het ziet op estofex.org waaronder ook de kans op hagel en supercells.

dBZ - dBZ staat voor decibel ten opzichte van Z.

Cape - Convective available potential energy (CAPE), is de totale hoeveelheid energie die een luchtpakketje nodig heeft om zover mogelijk te stijgen in de atmosfeer.

K Index - K-Index wordt berekend door de Vertical Totals (VT) en het verschil tussen de 850 hPa temperatuur en de 700 hPa dauwpuntsdepressie (Tdd 700) bij elkaar op te tellen.

TT Index - Convectie index wordt gebruikt voor het voorspellen van zware buien of onweer.

WRF - The Weather Research and Forecasting (WRF) is een volgende generatie mesoscale numeriek weersvoorspelling systeem ontworpen om zowel de operationele planning als het atmosferisch onderzoek te dienen. WRF is a cooperatie tussen het National Center for Atmospheric Research (NCAR), National Centers for Environmental Prediction (NCEP), Forecast Systems Laboratory (FSL), Air Force Weather Agency (AFWA), Naval Research Laboratory, University of Oklahoma, en de Federal Aviation Administration (FAA). Deze software draait op onze server.

WRFDA - Een meer geavanceerde versie van WRF

Arome - Het 2.5 km Arome model. Verzorgd door het Noors Meteorologisch Instituut.

MET Norway - De proff-default 4km meteorological data is een beste keus selectie van meteorologische modellen gebruikt door met.no die zijn geïnterpoleerd tot een gemeenschappelijke dataset. Verzorgd door het Noorse Meteorologisch Instituut.

SMHI - Het Hirlam model verzorgd door het Zweeds meteorologisch instituut.

FMI - Het Hirlam mod